K7WBM Weather Reports


Display with metric or nautical units.
time (UTC)temp
F
wind
direction
speed
MPH
gust
MPH
rain 1hr
in
rain 24hr
in
rain mn
in
humidity
%
barometer
mb
20240522144530 60 298 0.0 3.0 0.00 0.00 0.00 41 1013.6
20240522144022 60 284 0.0 3.0 0.00 0.00 0.00 43 1013.6
20240522143523 59 0 0.0 2.0 0.00 0.00 0.00 43 1013.6
20240522143023 59 0 0.0 2.0 0.00 0.00 0.00 43 1013.7
20240522142520 58 0 0.0 2.0 0.00 0.00 0.00 46 1013.6
20240522142022 58 301 0.0 1.0 0.00 0.00 0.00 46 1013.7
20240522141542 57 0 0.0 1.0 0.00 0.00 0.00 47 1013.6
20240522141022 56 0 0.0 1.0 0.00 0.00 0.00 47 1013.6
20240522140523 54 0 0.0 1.0 0.00 0.00 0.00 49 1013.4
20240522140022 53 0 0.0 1.0 0.00 0.00 0.00 49 1013.3
20240522135518 52 0 0.0 0.0 0.00 0.00 0.00 51 1013.3
20240522135022 52 0 0.0 0.0 0.00 0.00 0.00 50 1013.1
20240522134538 52 0 0.0 0.0 0.00 0.00 0.00 51 1013.1
20240522134022 51 0 0.0 1.0 0.00 0.00 0.00 50 1013.2
20240522133523 51 0 0.0 1.0 0.00 0.00 0.00 51 1013.2
20240522133024 50 0 0.0 2.0 0.00 0.00 0.00 52 1013.2
20240522132520 50 0 0.0 2.0 0.00 0.00 0.00 53 1013.2
20240522132022 50 0 0.0 2.0 0.00 0.00 0.00 53 1013.3
20240522131542 50 0 0.0 1.0 0.00 0.00 0.00 54 1013.3
20240522131022 49 0 0.0 2.0 0.00 0.00 0.00 54 1013.3
20240522130522 49 0 0.0 2.0 0.00 0.00 0.00 55 1013.3
20240522130023 49 0 0.0 1.0 0.00 0.00 0.00 56 1013.3
20240522125523 48 0 0.0 1.0 0.00 0.00 0.00 56 1013.3
20240522125019 49 0 0.0 0.0 0.00 0.00 0.00 55 1013.3
20240522124550 49 0 0.0 0.0 0.00 0.00 0.00 53 1013.2
20240522124023 50 0 0.0 1.0 0.00 0.00 0.00 52 1013.3
20240522123523 51 0 0.0 4.0 0.00 0.00 0.00 51 1013.4
20240522123025 52 0 0.0 4.0 0.00 0.00 0.00 50 1013.4
20240522122522 52 0 0.0 4.0 0.00 0.00 0.00 49 1013.4
20240522122024 52 0 0.0 4.0 0.00 0.00 0.00 48 1013.4
20240522121528 52 300 0.0 4.0 0.00 0.00 0.00 48 1013.4
20240522121022 52 0 0.0 4.0 0.00 0.00 0.00 48 1013.5
20240522120523 52 316 0.0 5.0 0.00 0.00 0.00 47 1013.5
20240522120040 52 0 1.0 5.0 0.00 0.00 0.00 47 1013.5
20240522115522 53 0 1.0 6.0 0.00 0.00 0.00 47 1013.4
20240522115022 52 311 2.0 7.0 0.00 0.00 0.00 47 1013.4
20240522114524 52 301 1.0 7.0 0.00 0.00 0.00 47 1013.3
20240522114025 51 256 0.0 5.0 0.00 0.00 0.00 46 1013.4
20240522113522 51 235 0.0 4.0 0.00 0.00 0.00 46 1013.4
20240522113038 50 219 1.0 4.0 0.00 0.00 0.00 47 1013.3
20240522112521 49 0 0.0 1.0 0.00 0.00 0.00 48 1013.4
20240522112023 49 0 0.0 0.0 0.00 0.00 0.00 46 1013.4
20240522111528 50 0 0.0 0.0 0.00 0.00 0.00 45 1013.4
20240522111022 51 0 0.0 1.0 0.00 0.00 0.00 44 1013.4
20240522110521 51 0 0.0 3.0 0.00 0.00 0.00 43 1013.5
20240522110032 51 0 0.0 3.0 0.00 0.00 0.00 43 1013.6
20240522105522 51 0 0.0 2.0 0.00 0.00 0.00 42 1013.4
20240522105023 52 0 0.0 2.0 0.00 0.00 0.00 41 1013.4
20240522104522 52 0 0.0 2.0 0.00 0.00 0.00 40 1013.5
20240522104019 52 0 0.0 2.0 0.00 0.00 0.00 39 1013.4
20240522103522 52 303 0.0 2.0 0.00 0.00 0.00 39 1013.4
20240522103024 51 0 0.0 2.0 0.00 0.00 0.00 38 1013.4
20240522102522 51 295 0.0 2.0 0.00 0.00 0.00 37 1013.4
20240522102022 50 0 0.0 1.0 0.00 0.00 0.00 37 1013.6
20240522101523 50 0 0.0 1.0 0.00 0.00 0.00 36 1013.6
20240522101021 50 0 0.0 1.0 0.00 0.00 0.00 35 1013.7
20240522100521 49 0 0.0 1.0 0.00 0.00 0.00 35 1013.7
20240522100023 50 0 0.0 1.0 0.00 0.00 0.00 34 1013.7
20240522095522 50 0 0.0 1.0 0.00 0.00 0.00 34 1013.7
20240522095021 49 259 0.0 1.0 0.00 0.00 0.00 34 1013.7
20240522094527 49 169 0.0 1.0 0.00 0.00 0.00 34 1013.7
20240522094023 49 0 0.0 0.0 0.00 0.00 0.00 32 1013.7
20240522093523 50 0 0.0 1.0 0.00 0.00 0.00 34 1013.7
20240522093026 50 0 0.0 1.0 0.00 0.00 0.00 33 1013.8
20240522092520 50 0 0.0 1.0 0.00 0.00 0.00 33 1013.9
20240522092024 49 326 0.0 0.0 0.00 0.00 0.00 33 1013.9
20240522091528 50 0 0.0 1.0 0.00 0.00 0.00 33 1014.0
20240522091024 50 0 0.0 1.0 0.00 0.00 0.00 33 1014.0
20240522090520 50 0 0.0 1.0 0.00 0.00 0.00 32 1014.0
20240522090024 49 0 0.0 0.0 0.00 0.00 0.00 34 1014.0
20240522085520 49 0 0.0 1.0 0.00 0.00 0.00 33 1014.0
20240522085022 49 0 0.0 1.0 0.00 0.00 0.00 34 1013.9
20240522084523 48 0 0.0 0.0 0.00 0.00 0.00 35 1014.0
20240522084024 47 0 0.0 0.0 0.00 0.00 0.00 36 1014.1
20240522083521 46 0 0.0 0.0 0.00 0.00 0.00 36 1014.1
20240522083030 46 0 0.0 0.0 0.00 0.00 0.00 35 1014.1
20240522082521 46 0 0.0 0.0 0.00 0.00 0.00 36 1014.1
20240522082019 46 0 0.0 0.0 0.00 0.00 0.00 35 1014.2
20240522081527 46 0 0.0 0.0 0.00 0.00 0.00 37 1014.2
20240522081018 47 0 0.0 0.0 0.00 0.00 0.00 36 1014.3
20240522080521 47 0 0.0 0.0 0.00 0.00 0.00 35 1014.3
20240522080025 46 0 0.0 0.0 0.00 0.00 0.00 34 1014.3
20240522075520 46 0 0.0 0.0 0.00 0.00 0.00 38 1014.3
20240522075020 46 0 0.0 0.0 0.00 0.00 0.00 41 1014.4
20240522074524 46 0 0.0 0.0 0.00 0.00 0.00 44 1014.5
20240522074020 47 0 0.0 0.0 0.00 0.00 0.00 46 1014.5
20240522073518 47 0 0.0 1.0 0.00 0.00 0.00 45 1014.5
20240522073023 46 0 0.0 1.0 0.00 0.00 0.00 47 1014.6
20240522072522 44 0 0.0 0.0 0.00 0.00 0.00 52 1014.6
20240522072018 44 0 0.0 0.0 0.00 0.00 0.00 52 1014.6
20240522071529 44 0 0.0 0.0 0.00 0.00 0.00 51 1014.6
20240522071020 44 0 0.0 0.0 0.00 0.00 0.00 51 1014.6
20240522070520 44 0 0.0 0.0 0.00 0.00 0.00 54 1014.7
20240522070024 45 0 0.0 0.0 0.00 0.00 0.00 51 1014.6
20240522065519 45 0 0.0 0.0 0.00 0.00 0.00 51 1014.7
20240522065019 45 0 0.0 0.0 0.00 0.00 0.00 49 1014.8
20240522064534 45 0 0.0 0.0 0.00 0.00 0.00 50 1014.8
20240522064018 45 0 0.0 0.0 0.00 0.00 0.00 48 1014.9
20240522063519 44 0 0.0 0.0 0.00 0.00 0.00 50 1014.9
20240522063032 44 0 0.0 0.0 0.00 0.00 0.00 52 1014.9
20240522062521 45 0 0.0 0.0 0.00 0.00 0.00 49 1015.0
20240522062018 45 0 0.0 0.0 0.00 0.00 0.00 53 1015.0
20240522061524 46 0 0.0 0.0 0.00 0.00 0.00 52 1015.0
20240522061019 46 0 0.0 0.0 0.00 0.00 0.00 51 1015.1
20240522060521 46 0 0.0 0.0 0.00 0.00 0.00 52 1015.1
20240522060029 45 0 0.0 0.0 0.00 0.00 0.00 52 1015.2
20240522055518 44 0 0.0 0.0 0.00 0.00 0.00 51 1015.1
20240522055017 44 0 0.0 0.0 0.00 0.00 0.00 49 1015.2
20240522054524 45 0 0.0 0.0 0.00 0.00 0.00 49 1015.2
20240522054021 46 0 0.0 0.0 0.00 0.00 0.00 48 1015.2
20240522053517 46 0 0.0 0.0 0.00 0.00 0.00 48 1015.3
20240522053028 46 0 0.0 0.0 0.00 0.00 0.00 48 1015.4
20240522052519 46 0 0.0 0.0 0.00 0.00 0.00 51 1015.4
20240522052019 47 0 0.0 0.0 0.00 0.00 0.00 47 1015.3
20240522051526 48 0 0.0 0.0 0.00 0.00 0.00 46 1015.4
20240522051018 48 0 0.0 0.0 0.00 0.00 0.00 47 1015.4
20240522050523 48 0 0.0 0.0 0.00 0.00 0.00 47 1015.4
20240522050024 48 0 0.0 0.0 0.00 0.00 0.00 45 1015.3
20240522045522 48 0 0.0 0.0 0.00 0.00 0.00 47 1015.2
20240522045020 48 0 0.0 0.0 0.00 0.00 0.00 46 1015.1
20240522044528 48 0 0.0 0.0 0.00 0.00 0.00 44 1015.1
20240522044018 48 0 0.0 0.0 0.00 0.00 0.00 47 1015.1
20240522043517 48 0 0.0 0.0 0.00 0.00 0.00 50 1015.1
20240522043023 48 0 0.0 0.0 0.00 0.00 0.00 44 1014.9
20240522042518 49 0 0.0 0.0 0.00 0.00 0.00 44 1014.9
20240522042018 49 0 0.0 0.0 0.00 0.00 0.00 45 1015.1
20240522041526 49 0 0.0 0.0 0.00 0.00 0.00 42 1014.9
20240522041018 48 0 0.0 0.0 0.00 0.00 0.00 41 1015.0
20240522040519 49 0 0.0 0.0 0.00 0.00 0.00 40 1014.9
20240522040037 49 0 0.0 0.0 0.00 0.00 0.00 39 1014.9
20240522035518 50 0 0.0 0.0 0.00 0.00 0.00 41 1014.9
20240522035019 50 0 0.0 0.0 0.00 0.00 0.00 39 1014.9
20240522034527 51 0 0.0 0.0 0.00 0.00 0.00 36 1014.9
20240522034020 52 0 0.0 0.0 0.00 0.00 0.00 35 1014.9
20240522033520 52 0 0.0 0.0 0.00 0.00 0.00 36 1014.8
20240522033023 53 0 0.0 0.0 0.00 0.00 0.00 35 1014.8
20240522032518 53 0 0.0 0.0 0.00 0.00 0.00 35 1014.8
20240522032018 54 0 0.0 0.0 0.00 0.00 0.00 34 1014.8
20240522031535 55 0 0.0 0.0 0.00 0.00 0.00 30 1014.8
20240522031018 56 0 0.0 0.0 0.00 0.00 0.00 28 1014.8
20240522030521 57 0 0.0 0.0 0.00 0.00 0.00 26 1014.8
20240522030027 58 0 0.0 0.0 0.00 0.00 0.00 27 1014.8
20240522025517 59 0 0.0 0.0 0.00 0.00 0.00 25 1014.8
20240522025018 61 0 0.0 0.0 0.00 0.00 0.00 24 1014.9
20240522024523 62 0 0.0 0.0 0.00 0.00 0.00 24 1014.8
20240522024021 64 0 0.0 0.0 0.00 0.00 0.00 24 1014.8
20240522023521 66 0 0.0 0.0 0.00 0.00 0.00 23 1014.8
20240522023025 67 0 0.0 0.0 0.00 0.00 0.00 22 1014.7
20240522022519 67 0 0.0 0.0 0.00 0.00 0.00 22 1014.7
20240522022019 69 0 0.0 0.0 0.00 0.00 0.00 22 1014.7
20240522021526 70 0 0.0 0.0 0.00 0.00 0.00 21 1014.7
20240522021018 70 0 0.0 0.0 0.00 0.00 0.00 20 1014.7
20240522020518 69 0 0.0 0.0 0.00 0.00 0.00 22 1014.6
20240522020023 68 0 0.0 1.0 0.00 0.00 0.00 26 1014.7
20240522015522 68 0 0.0 1.0 0.00 0.00 0.00 25 1014.7
20240522015022 69 0 0.0 0.0 0.00 0.00 0.00 26 1014.7
20240522014531 70 0 0.0 0.0 0.00 0.00 0.00 24 1014.9
20240522014021 71 0 0.0 1.0 0.00 0.00 0.00 19 1014.8
20240522013522 70 0 0.0 1.0 0.00 0.00 0.00 18 1014.9
20240522013023 70 0 0.0 1.0 0.00 0.00 0.00 16 1014.9
20240522012522 71 0 0.0 1.0 0.00 0.00 0.00 13 1015.0
20240522012024 71 0 0.0 1.0 0.00 0.00 0.00 17 1015.0
20240522011526 71 0 0.0 1.0 0.00 0.00 0.00 19 1015.0
20240522011022 71 0 0.0 1.0 0.00 0.00 0.00 14 1015.0
20240522010521 71 0 0.0 1.0 0.00 0.00 0.00 21 1015.1
20240522010032 70 0 0.0 1.0 0.00 0.00 0.00 17 1015.1
20240522005522 70 0 0.0 1.0 0.00 0.00 0.00 14 1015.1
20240522005019 70 153 0.0 5.0 0.00 0.00 0.00 18 1015.2
20240522004526 69 0 0.0 5.0 0.00 0.00 0.00 19 1015.2
20240522004027 69 9 0.0 3.0 0.00 0.00 0.00 16 1015.2
20240522003522 70 0 0.0 3.0 0.00 0.00 0.00 16 1015.4
20240522003023 70 18 0.0 3.0 0.00 0.00 0.00 17 1015.4
20240522002524 69 0 0.0 3.0 0.00 0.00 0.00 15 1015.4
20240522002020 69 76 0.0 3.0 0.00 0.00 0.00 19 1015.5
20240522001528 69 0 0.0 4.0 0.00 0.00 0.00 18 1015.4
20240522001022 69 0 0.0 5.0 0.00 0.00 0.00 17 1015.6
20240522000521 69 0 0.0 5.0 0.00 0.00 0.00 15 1015.7
20240522000030 69 0 1.0 5.0 0.00 0.00 0.00 15 1015.8
20240521235522 69 92 0.0 3.0 0.00 0.00 0.00 20 1015.8
20240521235022 68 0 0.0 5.0 0.00 0.00 0.00 16 1015.9
20240521234526 68 0 0.0 5.0 0.00 0.00 0.00 15 1016.0
20240521234022 68 347 2.0 6.0 0.00 0.00 0.00 25 1016.1
20240521233520 68 323 0.0 6.0 0.00 0.00 0.00 16 1016.1
20240521233024 68 324 1.0 6.0 0.00 0.00 0.00 16 1016.2
20240521232521 68 334 2.0 5.0 0.00 0.00 0.00 15 1016.3
20240521232022 68 0 0.0 5.0 0.00 0.00 0.00 20 1016.3
20240521231523 69 333 1.0 5.0 0.00 0.00 0.00 16 1016.4
20240521231024 69 21 0.0 3.0 0.00 0.00 0.00 22 1016.4
20240521230522 68 344 0.0 4.0 0.00 0.00 0.00 18 1016.4
20240521230047 68 0 0.0 5.0 0.00 0.00 0.00 22 1016.5
20240521225519 67 32 0.0 6.0 0.00 0.00 0.00 20 1016.6
20240521225021 67 292 2.0 6.0 0.00 0.00 0.00 21 1016.7
20240521224524 68 0 0.0 2.0 0.00 0.00 0.00 24 1016.7
20240521224021 67 98 0.0 3.0 0.00 0.00 0.00 20 1016.7
20240521223520 67 0 0.0 5.0 0.00 0.00 0.00 18 1016.7
20240521223027 67 120 1.0 6.0 0.00 0.00 0.00 19 1016.8
20240521222518 66 207 1.0 6.0 0.00 0.00 0.00 17 1017.0
20240521222018 67 0 1.0 4.0 0.00 0.00 0.00 19 1017.0
20240521221522 67 0 0.0 3.0 0.00 0.00 0.00 19 1017.1
20240521221019 67 21 0.0 2.0 0.00 0.00 0.00 20 1017.1
20240521220519 67 179 0.0 3.0 0.00 0.00 0.00 23 1017.3
20240521220036 67 61 0.0 3.0 0.00 0.00 0.00 22 1017.4
20240521215521 67 135 0.0 3.0 0.00 0.00 0.00 27 1017.4
20240521215019 67 146 0.0 3.0 0.00 0.00 0.00 23 1017.5
20240521214524 67 103 0.0 3.0 0.00 0.00 0.00 25 1017.5
20240521214019 66 139 1.0 5.0 0.00 0.00 0.00 23 1017.6
20240521213518 66 0 0.0 5.0 0.00 0.00 0.00 25 1017.6
20240521213026 66 294 1.0 4.0 0.00 0.00 0.00 21 1017.6
20240521212520 66 0 2.0 4.0 0.00 0.00 0.00 21 1017.6
20240521212021 65 316 0.0 6.0 0.00 0.00 0.00 20 1017.6
20240521211522 65 0 1.0 8.0 0.00 0.00 0.00 19 1017.7
20240521211019 65 0 2.0 8.0 0.00 0.00 0.00 20 1017.7
20240521210519 65 335 0.0 5.0 0.00 0.00 0.00 23 1017.8
20240521210036 65 58 1.0 5.0 0.00 0.00 0.00 23 1017.8
20240521205518 65 0 0.0 5.0 0.00 0.00 0.00 26 1017.9
20240521205019 65 314 1.0 3.0 0.00 0.00 0.00 25 1018.0
20240521204523 65 0 1.0 3.0 0.00 0.00 0.00 22 1018.0
20240521204019 64 0 0.0 3.0 0.00 0.00 0.00 25 1018.1
20240521203519 64 0 1.0 3.0 0.00 0.00 0.00 20 1018.2
20240521203024 64 82 1.0 4.0 0.00 0.00 0.00 20 1018.2
20240521202520 65 0 1.0 4.0 0.00 0.00 0.00 20 1018.3
20240521202019 65 139 0.0 4.0 0.00 0.00 0.00 23 1018.3
20240521201534 65 134 1.0 3.0 0.00 0.00 0.00 26 1018.3
20240521201018 65 99 0.0 4.0 0.00 0.00 0.00 24 1018.4
20240521200520 65 0 0.0 4.0 0.00 0.00 0.00 24 1018.5
20240521200038 65 30 1.0 3.0 0.00 0.00 0.00 25 1018.4
20240521195522 64 79 1.0 4.0 0.00 0.00 0.00 24 1018.5
20240521195020 64 0 0.0 4.0 0.00 0.00 0.00 24 1018.5
20240521194519 65 342 1.0 4.0 0.00 0.00 0.00 22 1018.6
20240521194019 65 257 0.0 3.0 0.00 0.00 0.00 22 1018.7
20240521193519 64 0 0.0 3.0 0.00 0.00 0.00 26 1018.7
20240521193024 63 77 0.0 4.0 0.00 0.00 0.00 27 1018.8
20240521192519 63 73 0.0 4.0 0.00 0.00 0.00 30 1019.0
20240521192020 63 347 0.0 4.0 0.00 0.00 0.00 26 1019.0
20240521191522 63 0 1.0 3.0 0.00 0.00 0.00 22 1019.0
20240521191019 62 0 0.0 3.0 0.00 0.00 0.00 26 1019.0
20240521190520 62 0 0.0 5.0 0.00 0.00 0.00 22 1019.1
20240521190029 62 58 2.0 6.0 0.00 0.00 0.00 23 1019.2
20240521185520 62 98 1.0 6.0 0.00 0.00 0.00 26 1019.2
20240521185021 62 63 1.0 7.0 0.00 0.00 0.00 22 1019.3
20240521184527 63 133 3.0 7.0 0.00 0.00 0.00 25 1019.4
20240521184020 62 148 0.0 5.0 0.00 0.00 0.00 24 1019.4
20240521183520 62 87 1.0 5.0 0.00 0.00 0.00 27 1019.5
20240521183023 62 151 0.0 5.0 0.00 0.00 0.00 29 1019.4
20240521182519 62 328 2.0 5.0 0.00 0.00 0.00 25 1019.5
20240521182019 63 0 0.0 3.0 0.00 0.00 0.00 30 1019.5
20240521181537 63 0 0.0 3.0 0.00 0.00 0.00 28 1019.6
20240521181023 62 118 0.0 4.0 0.00 0.00 0.00 27 1019.5
20240521180520 62 0 1.0 5.0 0.00 0.00 0.00 25 1019.6
20240521180027 62 0 1.0 5.0 0.00 0.00 0.00 26 1019.7
20240521175520 62 0 0.0 2.0 0.00 0.00 0.00 32 1019.6
20240521175021 61 0 0.0 2.0 0.00 0.00 0.00 24 1019.7
20240521174522 61 195 0.0 4.0 0.00 0.00 0.00 24 1019.7
20240521174022 61 0 0.0 4.0 0.00 0.00 0.00 34 1019.7
20240521173521 61 104 1.0 4.0 0.00 0.00 0.00 31 1019.7
20240521173034 61 120 0.0 2.0 0.00 0.00 0.00 27 1019.7
20240521172522 61 120 0.0 2.0 0.00 0.00 0.00 33 1019.7
20240521172018 60 0 0.0 3.0 0.00 0.00 0.00 37 1019.8
20240521171522 60 97 0.0 3.0 0.00 0.00 0.00 31 1019.8
20240521171020 60 0 0.0 3.0 0.00 0.00 0.00 29 1019.8
20240521170519 60 160 1.0 3.0 0.00 0.00 0.00 31 1019.8
20240521170023 60 0 0.0 3.0 0.00 0.00 0.00 32 1019.9
20240521165521 59 0 0.0 2.0 0.00 0.00 0.00 29 1020.0
20240521165019 59 0 0.0 2.0 0.00 0.00 0.00 29 1020.0
20240521164522 59 86 0.0 2.0 0.00 0.00 0.00 29 1020.0
20240521164021 58 108 0.0 4.0 0.00 0.00 0.00 31 1020.0
20240521163518 57 0 0.0 6.0 0.00 0.00 0.00 31 1020.0
20240521163026 58 48 2.0 6.0 0.00 0.00 0.00 28 1020.1
20240521162519 58 174 0.0 3.0 0.00 0.00 0.00 32 1020.2
20240521162020 58 11 0.0 3.0 0.00 0.00 0.00 30 1020.2
20240521161523 59 305 0.0 2.0 0.00 0.00 0.00 33 1020.2
20240521161019 57 179 0.0 2.0 0.00 0.00 0.00 32 1020.3
20240521160519 57 0 0.0 1.0 0.00 0.00 0.00 31 1020.2
20240521160021 56 94 0.0 3.0 0.00 0.00 0.00 33 1020.2
20240521155521 55 0 0.0 3.0 0.00 0.00 0.00 34 1020.2
20240521155021 55 316 0.0 3.0 0.00 0.00 0.00 31 1020.2
20240521154522 55 0 0.0 2.0 0.00 0.00 0.00 34 1020.2
20240521154021 55 325 0.0 1.0 0.00 0.00 0.00 36 1020.2
20240521153519 55 0 0.0 1.0 0.00 0.00 0.00 33 1020.1
20240521153027 54 0 0.0 2.0 0.00 0.00 0.00 40 1020.2
20240521152519 53 5 0.0 2.0 0.00 0.00 0.00 38 1020.1
20240521152021 53 3 0.0 1.0 0.00 0.00 0.00 38 1020.2
20240521151532 52 0 0.0 1.0 0.00 0.00 0.00 35 1020.3
20240521151020 52 0 0.0 0.0 0.00 0.00 0.00 36 1020.1
20240521150520 52 0 0.0 0.0 0.00 0.00 0.00 37 1020.2
20240521150022 52 0 0.0 0.0 0.00 0.00 0.00 37 1020.1
20240521145524 52 0 0.0 0.0 0.00 0.00 0.00 38 1020.1
20240521145021 51 0 0.0 0.0 0.00 0.00 0.00 38 1020.1